Flag for Finland Weather past 2 weeks in Kemi, Finland

Now
46 °F

Overcast.


Feels Like: 46 °F
Forecast: 48 / 58 °F
Wind: 1 mph from North

Location: Kemi Airport

Current Time: Aug 31, 2014 at 5:53:28 AM

Latest Report: Aug 31, 2014 at 5:20 AM


Visibility: 3 mi

Pressure: 30.21 "Hg

Humidity: 93%

Dew point: 45 °F

Location of KemiLocation

Historic Weather in Kemi — Graph

°F

Kemi temperature yesterday

Maximum temperature yesterday: 59 °F (at 4:20 PM)
Minimum temperature yesterday: 41 °F (at 10:50 PM)
Average temperature yesterday: 50 °F

Past Weeks' High & Low Weather Summary

 TemperatureHumidityPressure
High66 °F (Aug 18, 3:20 PM)100% (Aug 17, 6:50 AM)30.21 "Hg (Aug 17, 6:50 AM)
Low37 °F (Aug 31, 1:20 AM)42% (Aug 16, 3:20 PM)29.39 "Hg (Aug 19, 4:50 PM)
Average54 °F87%29.69 "Hg
* Reported Aug 16 4:20 AM — Aug 31 4:50 AM, Kemi, Weather by CustomWeather, © 2014

Note: Actual official high and low records may vary slightly from our data, if they occured in-between our weather recording intervals... More about our weather records

Advertising

Kemi weather history for previous 24 hours

 ConditionsComfort  
Time TempWeatherWind HumidityBarometerVisibility
4:50 AM
Aug 31
46 °FFog.No wind93%30.21 "Hg2 mi
4:20 AM46 °FOvercast.No wind100%30.21 "Hg4 mi
3:50 AM46 °FOvercast.1 mph93%30.21 "Hg3 mi
3:20 AM43 °FOvercast.3 mph100%30.21 "Hg3 mi
2:50 AM41 °FOvercast.No wind100%30.21 "Hg4 mi
2:20 AM41 °FOvercast.No wind100%30.21 "Hg4 mi
1:50 AM39 °FPassing clouds.No wind93%30.21 "Hg3 mi
1:20 AM37 °FFog.No wind100%30.21 "Hg2 mi
12:50 AM39 °FClear.No wind93%30.18 "Hg3 mi
12:20 AM39 °FClear.1 mph100%30.18 "Hg3 mi
11:50 PM
Aug 30
41 °FFog.No wind93%30.18 "Hg2 mi
11:20 PM41 °FFog.No wind100%30.18 "Hg2 mi
10:50 PM41 °FFog.1 mph100%30.18 "Hg1 mi
10:20 PM43 °FClear.1 mph100%30.15 "Hg4 mi
9:50 PM45 °FSunny.No wind93%30.15 "HgN/A
8:50 PM48 °FFog.1 mph94%30.15 "Hg2 mi
8:20 PM52 °FSunny.1 mph82%30.15 "Hg4 mi
7:50 PM54 °FSunny.1 mph77%30.15 "Hg10 mi
7:20 PM55 °FSunny.2 mph72%30.15 "Hg10 mi
6:50 PM55 °FPassing clouds.3 mph72%30.12 "HgN/A
6:20 PM57 °FPartly sunny.2 mph67%30.12 "HgN/A
5:50 PM59 °FPassing clouds.5 mph55%30.12 "HgN/A
5:20 PM57 °FPassing clouds.5 mph59%30.12 "HgN/A
4:50 PM57 °FScattered clouds.6 mph59%30.12 "HgN/A
4:20 PM59 °FPassing clouds.6 mph51%30.12 "HgN/A
3:50 PM57 °FPassing clouds.5 mph55%30.12 "HgN/A
3:20 PM57 °FPassing clouds.6 mph55%30.12 "HgN/A
2:50 PM57 °FPassing clouds.6 mph55%30.12 "HgN/A
2:20 PM55 °FPassing clouds.7 mph59%30.12 "HgN/A
1:50 PM55 °FSunny.3 mph59%30.12 "Hg10 mi
1:20 PM55 °FPassing clouds.6 mph59%30.12 "HgN/A
12:50 PM54 °FPassing clouds.9 mph58%30.12 "HgN/A
12:20 PM54 °FPassing clouds.9 mph58%30.12 "HgN/A
11:50 AM54 °FScattered clouds.9 mph58%30.12 "HgN/A
11:20 AM52 °FPassing clouds.9 mph67%30.12 "HgN/A
10:50 AM52 °FPartly sunny.9 mph67%30.12 "HgN/A
10:20 AM50 °FPartly sunny.7 mph71%30.12 "HgN/A
9:50 AM50 °FOvercast.5 mph71%30.12 "HgN/A
9:20 AM48 °FOvercast.6 mph82%30.12 "HgN/A
8:50 AM48 °FOvercast.3 mph82%30.09 "HgN/A
8:20 AM46 °FOvercast.2 mph87%30.09 "HgN/A
7:50 AM46 °FOvercast.No wind87%30.09 "HgN/A
7:20 AM46 °FOvercast.2 mph87%30.09 "HgN/A
6:50 AM45 °FOvercast.3 mph93%30.09 "HgN/A
6:20 AM45 °FOvercast.5 mph93%30.09 "HgN/A
5:50 AM45 °FPassing clouds.2 mph93%30.09 "HgN/A
5:20 AM45 °FOvercast.3 mph93%30.09 "HgN/A
Weather by CustomWeather, © 2014

See weather overviewHow to use our weather pages